Location: Unspecified
(0.0000°N, 0.0000°E)
Time: 16:28:38
(UTC+00:00)

Envisat - Pass Details

Date: 24 September 2020
Orbit: 764 x 766 km, 98.1° (Epoch: 19 September)

Event Time Altitude Azimuth Distance (km) Brightness Sun altitude
Rises 18:29:00 0° 193° (SSW) 3,229 6.4 -9.3°
Reaches altitude 10° 18:31:47 10° 208° (SSW) 2,300 5.9 -10.0°
Maximum altitude 18:35:36 22° 258° (WSW) 1,633 5.8 -11.0°
Drops below altitude 10° 18:39:25 10° 307° (NW) 2,292 6.3 -11.9°
Sets 18:42:12 0° 322° (NW) 3,215 6.8 -12.6°
